This is the latest recevied weather packets stored in our database for station/object K8WEH. If no packets are shown the sender has not sent any weather packets the latest 10 day(s).
| Time | Temp. | Humidity | Pressure | Rain* | Wind** | Luminosity | Snow |
|---|---|---|---|---|---|---|---|
| 1777815050 | 5.56° C | 70% | 1023.1 hPa | 0 mm | - | - | - |
| 1777814750 | 5.56° C | 71% | 1023.1 hPa | 0 mm | - | - | - |
| 1777814449 | 5.56° C | 70% | 1023.1 hPa | 0 mm | - | - | - |
| 1777814152 | 5.56° C | 71% | 1023.2 hPa | 0 mm | - | - | - |
| 1777813847 | 5° C | 72% | 1023.3 hPa | 0 mm | - | - | - |
| 1777813546 | 5° C | 72% | 1023.2 hPa | 0 mm | - | - | - |
| 1777813244 | 4.44° C | 72% | 1023.2 hPa | 0 mm | - | - | - |
| 1777812942 | 4.44° C | 74% | 1023.2 hPa | 0 mm | - | - | - |
| 1777812641 | 4.44° C | 76% | 1023.2 hPa | 0 mm | - | - | - |
| 1777812339 | 3.89° C | 76% | 1023.2 hPa | 0 mm | - | - | - |
| 1777812038 | 3.89° C | 77% | 1023.2 hPa | 0 mm | - | - | - |
| 1777811737 | 3.33° C | 78% | 1023.3 hPa | 0 mm | - | - | - |
| 1777811434 | 2.78° C | 79% | 1023.3 hPa | 0 mm | - | - | - |
| 1777811133 | 2.78° C | 79% | 1023.2 hPa | 0 mm | - | - | - |
| 1777810832 | 2.22° C | 78% | 1023.2 hPa | 0 mm | - | - | - |
| 1777810531 | 1.67° C | 74% | 1023.2 hPa | 0 mm | - | - | - |
| 1777810232 | 1.67° C | 70% | 1023.1 hPa | 0 mm | - | - | - |
| 1777809932 | 1.11° C | 66% | 1023 hPa | 0 mm | - | - | - |
| 1777809630 | 0.56° C | 63% | 1022.9 hPa | 0 mm | - | - | - |
| 1777809329 | 0.56° C | 63% | 1022.8 hPa | 0 mm | - | - | - |
| 1777809030 | 0.56° C | 63% | 1022.8 hPa | 0 mm | - | - | - |
| 1777808728 | 0.56° C | 64% | 1022.8 hPa | 0 mm | - | - | - |
| 1777808428 | 0° C | 64% | 1022.9 hPa | 0 mm | - | - | - |
| 1777808128 | 0° C | 65% | 1022.7 hPa | 0 mm | - | - | - |
| 1777807827 | 0° C | 65% | 1022.7 hPa | 0 mm | - | - | - |
* Rain latest hour (hover to see other rain measurements)
** Current wind speed in m/s (hover to see current wind gust speed)